Location: Observatoire
(46.1952°N, 5.3391°E)
Time: 17:59:48
(UTC+01:00)

Injun/Solrad 3 - Pass Details

Date: 18 February 2026
Orbit: 872 x 984 km, 66.8° (Epoch: 8 March)

Event Time Altitude Azimuth Distance (km) Brightness Sun altitude
Rises 21:01:39 0° 323° (NW) 3,577 11.7 -30.3°
Reaches altitude 10° 21:04:12 10° 319° (NW) 2,647 10.9 -30.8°
Maximum altitude 21:10:09 52° 245° (WSW) 1,166 8.5 -31.7°
Enters shadow 21:10:56 49° 219° (SW) 1,209 8.5 -31.9°
